Powrót do katalogu

STARLINK-2521

AktywnyŁącznośćVLEO
NORAD 48648·PAYLOAD·🇺🇸 United States

Wystrzelony May 26, 2021 z Cape Canaveral Space Force Station

Loading…

Następne Przeloty (najbliższe 24 godziny)

TLE

ŚwieżeSource: CelesTrak SupGP

Epoka: Sep 14, 2026, 20:34 UTC

1 48648C 21044L   26257.85743056 -.00023058  00000+0 -74134-3 0  2579
2 48648  53.1576 313.6531 0001111  93.8190 334.8122 15.31720075    10

Śledź STARLINK-2521 w czasie rzeczywistym z AllMySat

Download on the App Store